SAS42B ESMQ-ENBR

Flight info

Callsign SAS42B
Flight time N/A
Altitude 38000
Route TILSA1L TILSA DCT BOMGU DCT PESUR PESUR3N
Aircraft A319/M-SDE3FGHIRWY/LB1

Departure

Time 2026-05-06 17:47
Airport Kalmar Airport (ESMQ)

Arrival

Time N/A
Airport Bergen Airport, Flesland (ENBR)
Time Latitude Longitude Altitude Speed Heading
2026-05-06 17:24 56.67860 16.28539 23 ft 0 kts 200°
2026-05-06 17:39 56.67864 16.28542 22 ft 4 kts 192°
2026-05-06 17:40 56.67874 16.28539 23 ft 4 kts 105°
2026-05-06 17:40 56.67879 16.28505 24 ft 0 kts 107°
2026-05-06 17:44 56.67879 16.28516 24 ft 3 kts 90°
2026-05-06 17:44 56.67880 16.28591 21 ft 11 kts 90°
2026-05-06 17:44 56.67859 16.28734 21 ft 12 kts 102°
2026-05-06 17:44 56.67862 16.28906 21 ft 15 kts 92°
2026-05-06 17:45 56.67873 16.29060 22 ft 13 kts 56°
2026-05-06 17:45 56.67934 16.29168 21 ft 0 kts 43°
2026-05-06 17:45 56.67957 16.29205 22 ft 9 kts 40°
2026-05-06 17:46 56.68026 16.29254 20 ft 13 kts 352°
2026-05-06 17:46 56.68084 16.29201 20 ft 2 kts 333°
2026-05-06 17:46 56.68357 16.28940 22 ft 90 kts 332°
2026-05-06 17:46 56.69148 16.28185 112 ft 153 kts 335°
2026-05-06 17:47 56.70078 16.27293 916 ft 151 kts 334°
2026-05-06 17:47 56.71029 16.26368 1507 ft 163 kts 336°
2026-05-06 17:47 56.72107 16.25338 1842 ft 186 kts 337°
2026-05-06 17:47 56.73331 16.24184 2212 ft 210 kts 336°
2026-05-06 17:48 56.74609 16.22655 2640 ft 237 kts 314°
2026-05-06 17:48 56.75359 16.19803 3182 ft 264 kts 284°
2026-05-06 17:48 56.75621 16.16441 4187 ft 270 kts 276°
2026-05-06 17:48 56.75726 16.13007 5282 ft 273 kts 274°
2026-05-06 17:49 56.75816 16.09580 6372 ft 274 kts 275°
2026-05-06 17:49 56.75945 16.06105 7398 ft 276 kts 277°
2026-05-06 17:49 56.76119 16.02601 8382 ft 279 kts 277°
2026-05-06 17:49 56.76329 15.99069 9352 ft 282 kts 278°
2026-05-06 17:50 56.76566 15.95499 10220 ft 289 kts 278°
2026-05-06 17:50 56.76844 15.91718 10564 ft 310 kts 280°
2026-05-06 17:50 56.77458 15.87893 11218 ft 319 kts 293°
2026-05-06 17:50 56.78535 15.84335 12037 ft 322 kts 305°
2026-05-06 17:51 56.79955 15.81143 12855 ft 326 kts 309°
2026-05-06 17:51 56.81421 15.77956 13660 ft 330 kts 309°
2026-05-06 17:51 56.82905 15.74723 14366 ft 334 kts 308°
2026-05-06 17:51 56.84402 15.71454 15064 ft 337 kts 308°
2026-05-06 17:52 56.85892 15.68192 15736 ft 340 kts 308°
2026-05-06 17:52 56.87417 15.64852 16432 ft 344 kts 308°
2026-05-06 17:52 56.88958 15.61479 17117 ft 347 kts 307°
2026-05-06 17:52 56.90512 15.58071 17797 ft 350 kts 307°
2026-05-06 17:53 56.92080 15.54626 18450 ft 354 kts 307°
2026-05-06 17:53 56.93660 15.51147 19044 ft 357 kts 307°
2026-05-06 17:53 56.95253 15.47630 19629 ft 360 kts 307°
2026-05-06 17:53 56.96858 15.44080 20244 ft 363 kts 306°
2026-05-06 17:54 56.98470 15.40507 20920 ft 364 kts 306°
2026-05-06 17:54 57.00086 15.36921 21557 ft 366 kts 306°
2026-05-06 17:54 57.01710 15.33310 22158 ft 368 kts 305°
2026-05-06 17:54 57.03344 15.29673 22749 ft 370 kts 305°
2026-05-06 17:55 57.04987 15.26014 23341 ft 373 kts 305°
2026-05-06 17:55 57.06644 15.22323 23867 ft 375 kts 305°
2026-05-06 17:55 57.08310 15.18609 24326 ft 378 kts 305°
2026-05-06 17:55 57.09990 15.14859 24781 ft 382 kts 304°
2026-05-06 17:56 57.11683 15.11067 25212 ft 385 kts 304°
2026-05-06 17:56 57.13388 15.07239 25651 ft 388 kts 304°
2026-05-06 17:56 57.15106 15.03376 26087 ft 391 kts 304°
2026-05-06 17:56 57.16837 14.99484 26517 ft 394 kts 304°
2026-05-06 17:57 57.18584 14.95559 26968 ft 397 kts 303°
2026-05-06 17:57 57.20340 14.91606 27411 ft 399 kts 303°
2026-05-06 17:57 57.22101 14.87622 27850 ft 402 kts 303°
2026-05-06 17:57 57.23847 14.83660 28280 ft 405 kts 303°
2026-05-06 17:58 57.25629 14.79606 28703 ft 408 kts 303°
2026-05-06 17:58 57.27428 14.75507 29121 ft 411 kts 303°
2026-05-06 17:58 57.29235 14.71382 29538 ft 414 kts 303°
2026-05-06 17:58 57.31059 14.67221 29938 ft 417 kts 302°
2026-05-06 17:59 57.32889 14.63036 30283 ft 420 kts 302°
2026-05-06 17:59 57.34734 14.58818 30618 ft 423 kts 303°
2026-05-06 17:59 57.36589 14.54577 30973 ft 425 kts 302°
2026-05-06 17:59 57.38452 14.50307 31316 ft 427 kts 302°
2026-05-06 18:00 57.40321 14.46015 31698 ft 428 kts 302°
2026-05-06 18:00 57.42181 14.41739 32252 ft 424 kts 302°
2026-05-06 18:00 57.44031 14.37481 32756 ft 422 kts 302°
2026-05-06 18:00 57.45870 14.33240 33242 ft 421 kts 302°
2026-05-06 18:01 57.47674 14.29054 33715 ft 420 kts 301°
2026-05-06 18:01 57.49491 14.24819 34139 ft 419 kts 301°
2026-05-06 18:01 57.51311 14.20569 34502 ft 419 kts 302°
2026-05-06 18:01 57.53131 14.16317 34844 ft 419 kts 302°
2026-05-06 18:02 57.54954 14.12067 35175 ft 419 kts 302°
2026-05-06 18:02 57.56774 14.07828 35498 ft 420 kts 302°
2026-05-06 18:02 57.58597 14.03570 35806 ft 420 kts 302°
2026-05-06 18:02 57.60414 13.99309 36109 ft 420 kts 302°
2026-05-06 18:03 57.62231 13.95036 36401 ft 421 kts 302°
2026-05-06 18:03 57.64050 13.90747 36668 ft 422 kts 302°
2026-05-06 18:03 57.65873 13.86443 36948 ft 422 kts 302°
2026-05-06 18:03 57.67693 13.82143 37238 ft 422 kts 302°
2026-05-06 18:04 57.69511 13.77842 37515 ft 422 kts 303°
2026-05-06 18:04 57.71303 13.73586 37781 ft 422 kts 303°
2026-05-06 18:04 57.73120 13.69264 37921 ft 423 kts 303°
2026-05-06 18:04 57.74942 13.64928 37946 ft 423 kts 303°
2026-05-06 18:05 57.78577 13.56268 37931 ft 422 kts 303°
2026-05-06 18:05 57.82201 13.47592 37953 ft 422 kts 302°
2026-05-06 18:06 57.85811 13.38891 37934 ft 422 kts 302°
2026-05-06 18:06 57.89418 13.30165 37932 ft 423 kts 302°
2026-05-06 18:07 57.93022 13.21429 37937 ft 423 kts 302°
2026-05-06 18:07 57.96602 13.12742 37939 ft 423 kts 302°
2026-05-06 18:08 58.00204 13.03967 37945 ft 423 kts 302°
2026-05-06 18:08 58.03790 12.95185 37968 ft 422 kts 302°
2026-05-06 18:09 58.07367 12.86391 37955 ft 422 kts 302°
2026-05-06 18:09 58.10942 12.77578 37953 ft 422 kts 302°
2026-05-06 18:10 58.14505 12.68752 37951 ft 422 kts 302°
2026-05-06 18:10 58.18057 12.59910 37952 ft 422 kts 302°
2026-05-06 18:11 58.21010 12.52546 37952 ft 422 kts 302°
2026-05-06 18:11 58.24551 12.43675 37958 ft 422 kts 302°
2026-05-06 18:12 58.28665 12.33349 37952 ft 422 kts 302°
2026-05-06 18:12 58.31629 12.25896 37950 ft 422 kts 302°
2026-05-06 18:13 58.35136 12.17025 37946 ft 422 kts 301°
2026-05-06 18:13 58.38643 12.08080 37938 ft 422 kts 301°